Theta_e
316 315 315 315 314 313 313 313 313 312 310 308 306 306 298 294 297 306 311 314 310 298 293 303 299 297 295 298 298 299 299 297 296 297 296 296 295 295 295 297 295 296 296 295 294 292 291 292 292 293 293 294 298 298 297 296 298 296 296 299 298 325 294 293 293 294 296 297 298 299 301 300 300 298 305 305 303 291 290 287 287 289 293 295 294 293 299
316 315 315 315 313 312 313 313 313 312 310 307 305 301 298 298 299 305 312 312 306 300 296 294 291 294 302 301 298 298 299 295 295 295 294 294 294 294 294 295 299 298 296 296 296 297 291 294 293 293 295 296 299 298 297 299 302 298 299 298 302 296 297 292 288 286 289 293 297 295 298 298 295 296 304 307 306 302 293 292 292 291 291 294 290 289 299
316 315 315 314 313 313 312 313 313 312 311 308 304 304 303 302 304 306 310 316 303 300 294 293 291 294 296 294 295 296 296 296 297 295 296 296 293 294 294 296 297 297 297 297 297 298 294 293 295 294 297 295 298 298 297 303 310 313 303 320 305 298 297 293 287 284 284 285 283 287 290 293 296 301 309 310 309 303 294 293 291 287 298 300 296 298 309
316 316 316 314 313 313 313 313 313 312 311 308 307 303 303 298 297 301 307 310 305 305 302 303 302 298 297 296 294 294 293 296 295 295 296 295 296 294 296 297 296 295 296 296 295 296 297 294 294 294 295 294 297 298 297 306 315 325 323 316 308 298 299 295 291 288 286 289 292 296 299 299 301 305 307 308 310 307 296 289 288 287 299 303 306 309 310
317 316 316 315 314 313 313 312 313 312 310 309 305 306 303 304 301 302 300 306 303 303 303 305 303 301 300 292 294 294 293 293 296 297 295 297 296 296 297 297 297 295 295 294 295 296 296 296 295 296 295 295 296 296 298 298 313 324 312 313 301 299 297 300 297 297 296 297 296 304 307 303 303 304 305 309 309 308 303 293 293 296 300 295 308 313 311
317 317 317 315 313 313 313 313 312 311 310 308 308 309 307 299 302 308 309 298 292 298 299 307 306 306 300 293 294 293 293 294 294 296 297 297 296 296 295 293 296 297 296 295 294 294 294 294 295 296 296 296 296 297 298 298 305 309 299 304 298 294 293 299 301 298 301 302 303 306 306 305 305 305 306 307 309 310 306 305 303 301 293 297 310 314 311
318 317 317 316 314 313 314 313 312 311 309 307 309 303 305 307 306 308 313 304 303 301 305 312 308 299 298 294 298 293 292 293 293 294 295 294 296 294 292 294 295 296 297 295 293 293 290 291 294 294 296 295 293 294 295 299 296 296 295 297 298 294 293 298 302 300 301 301 305 306 305 304 304 303 305 307 309 311 312 311 312 312 311 313 313 313 312
318 317 317 316 315 314 314 313 313 311 309 306 304 303 304 301 303 302 310 307 306 307 307 307 301 297 303 298 300 298 292 291 293 294 293 293 295 295 293 295 297 298 297 293 293 295 293 294 293 295 295 291 294 294 294 294 296 296 297 297 298 295 294 304 297 298 300 302 306 304 302 303 302 302 303 306 309 311 311 312 313 315 313 314 313 312 311
318 317 317 317 315 314 314 314 313 311 309 301 303 302 303 303 308 309 304 299 299 308 304 302 297 294 296 298 300 304 298 294 294 293 294 293 294 296 296 296 297 297 295 296 296 297 296 295 298 299 293 294 295 294 295 296 296 294 295 296 297 294 292 294 292 292 295 299 303 301 299 300 300 300 301 302 306 306 309 309 312 309 309 311 311 309 309
318 317 317 317 315 314 314 314 313 311 310 304 298 296 300 303 306 310 305 299 307 302 302 299 298 296 297 303 303 302 300 301 299 294 297 295 295 297 299 297 297 295 296 296 297 298 299 298 295 298 294 295 298 298 296 296 298 294 295 296 295 290 291 291 290 289 290 297 301 299 298 293 291 296 299 301 306 309 312 313 315 313 311 304 303 308 316
319 318 317 316 316 315 315 315 314 311 312 306 303 298 300 301 300 302 303 301 296 298 300 298 299 303 304 307 303 304 301 302 300 293 294 297 298 297 300 299 296 293 293 298 299 300 302 300 297 297 299 298 298 296 300 298 298 295 295 294 294 294 290 290 289 287 287 295 297 298 293 287 286 299 304 303 306 308 308 309 312 316 315 311 315 315 318
319 318 317 316 316 316 315 315 314 312 312 312 310 306 304 302 301 301 299 295 294 298 300 298 300 304 306 306 306 303 302 302 302 298 296 296 296 298 299 299 297 295 299 302 305 302 300 302 300 299 298 299 299 298 299 297 297 303 295 295 293 297 289 289 288 285 289 292 295 291 287 288 301 310 313 314 313 313 312 313 314 316 318 317 315 316 316
319 318 317 317 316 316 315 315 314 312 312 313 312 306 309 309 304 302 300 297 294 294 297 298 305 305 306 306 305 303 304 304 304 303 297 297 297 296 298 298 296 299 301 299 300 298 296 295 294 295 297 295 295 296 299 297 297 297 295 296 294 291 289 290 289 287 288 288 287 283 284 296 304 307 313 315 312 310 307 307 312 314 316 317 314 315 316
319 319 318 317 316 315 316 315 314 314 312 311 311 310 310 309 303 301 300 297 297 298 304 299 296 302 304 303 303 305 303 301 299 298 297 298 296 296 298 302 299 300 300 301 298 292 290 288 286 289 292 290 289 292 296 296 298 297 297 295 296 294 290 288 286 290 286 286 285 288 295 296 302 302 306 304 301 301 301 296 301 310 315 317 315 315 316
319 319 318 317 316 315 316 315 315 315 313 310 312 311 310 309 307 304 303 301 296 299 297 291 293 302 303 304 304 302 298 297 296 295 297 300 298 299 298 300 300 301 298 298 293 292 288 288 288 287 286 287 284 287 292 296 296 297 298 296 294 293 294 289 289 288 289 287 285 287 287 286 293 300 305 308 308 308 307 303 299 305 314 318 316 314 315
319 319 318 317 316 316 315 316 315 314 314 310 312 310 310 310 309 306 302 299 294 290 291 299 306 304 302 301 304 302 299 297 297 293 292 294 298 299 299 297 298 302 301 297 294 292 292 289 284 284 284 284 287 289 289 292 293 296 295 296 296 295 293 290 288 286 288 287 285 284 284 287 296 300 303 307 308 310 309 299 293 300 311 317 316 315 316
319 318 318 317 316 315 315 315 315 314 314 311 310 310 308 307 305 305 304 303 299 293 298 308 308 307 300 299 300 300 300 299 298 294 290 293 299 298 299 302 299 302 297 294 290 291 290 287 285 283 285 289 288 287 291 287 287 290 296 293 295 294 291 287 288 287 289 284 282 286 287 292 299 300 303 307 308 307 300 290 290 301 311 316 316 315 315
318 319 318 317 317 316 315 315 315 315 313 312 311 309 309 311 308 307 305 301 298 300 301 306 304 299 298 299 299 301 304 300 299 298 295 295 299 298 296 299 297 297 299 293 292 286 285 285 286 286 286 292 293 291 282 286 286 286 288 287 289 291 292 288 287 287 292 293 286 287 291 299 303 303 304 306 307 299 289 285 297 306 312 316 317 316 315
318 318 318 317 316 315 315 315 316 315 314 310 313 311 309 309 309 309 303 300 299 297 300 305 310 306 305 308 303 304 305 304 301 297 295 295 299 302 301 299 300 295 296 295 287 287 286 289 289 284 287 290 293 286 288 287 286 290 289 289 289 289 290 291 289 288 289 284 286 288 288 295 301 303 306 308 302 289 288 295 300 311 315 318 319 316 316
317 318 318 317 316 315 315 315 315 315 315 311 311 307 309 311 311 309 305 301 300 300 303 305 308 305 309 305 300 298 300 300 300 298 294 293 298 301 296 294 295 294 295 293 291 289 287 286 288 291 288 286 289 291 286 289 291 290 289 290 286 288 288 287 287 288 289 284 285 285 283 297 305 306 304 306 296 294 296 304 313 316 317 318 316 316 315
317 317 317 315 315 315 315 315 315 315 315 314 311 308 308 312 313 313 312 307 301 299 300 304 309 308 309 308 308 307 304 301 299 299 297 297 300 295 287 289 293 294 292 293 287 287 289 288 290 292 292 289 292 291 285 284 290 294 295 291 292 292 288 285 286 290 285 285 285 285 290 297 302 303 297 300 303 305 306 311 312 315 316 314 313 313 315
317 317 316 315 315 315 315 315 315 315 315 315 312 311 306 310 311 313 314 311 304 301 300 303 309 310 311 313 313 313 311 310 310 307 302 299 298 300 297 299 297 297 298 295 292 292 295 291 292 292 290 292 291 289 287 284 286 289 294 294 289 294 292 291 288 291 290 288 288 293 296 300 304 304 303 305 311 311 313 315 314 315 314 314 313 313 315
317 315 315 315 315 314 315 315 315 314 314 314 313 309 305 309 311 314 311 305 308 308 309 308 310 311 317 317 317 317 316 317 315 312 307 301 297 298 300 299 300 304 305 298 295 293 294 295 293 292 292 292 293 290 290 287 284 288 292 295 294 298 298 296 297 295 298 299 299 303 305 307 309 310 310 312 314 315 316 318 316 314 316 316 314 314 315
315 315 314 314 314 314 314 314 314 314 314 314 313 309 308 310 312 312 309 306 302 301 305 308 306 303 305 305 310 316 319 318 317 315 314 308 297 297 301 304 306 305 305 305 302 300 297 294 296 294 292 293 293 288 288 288 288 289 291 295 293 297 299 297 295 297 293 293 299 303 306 305 309 310 311 312 312 312 314 315 315 316 317 317 317 316 316
314 314 314 314 314 314 314 314 314 314 314 313 313 313 313 311 313 311 306 300 299 299 296 301 303 310 312 314 316 315 316 318 321 318 313 310 306 302 302 308 310 306 304 306 304 302 297 295 295 294 293 295 297 291 291 292 292 292 292 290 292 298 300 297 296 293 292 294 299 302 303 304 305 305 310 311 311 313 314 314 316 317 318 318 318 318 316
313 313 313 313 314 314 313 313 313 313 313 313 313 310 308 308 313 313 310 307 305 303 297 297 302 312 316 314 311 313 316 315 314 315 315 311 310 310 308 309 308 311 309 308 303 299 296 296 294 293 292 296 299 293 291 292 292 294 293 291 295 298 304 296 296 295 298 300 301 302 305 307 306 307 309 309 312 315 314 315 317 318 318 317 318 319 318
313 312 313 313 313 313 313 313 313 313 313 313 312 311 310 310 313 311 307 306 303 299 300 298 304 309 312 308 312 313 313 312 313 312 313 314 312 312 310 308 307 306 303 302 302 299 296 295 296 296 296 298 298 295 294 296 296 295 295 298 301 300 295 296 298 297 295 298 301 303 301 299 303 306 309 310 311 314 313 314 316 317 317 317 317 318 320
311 311 311 312 312 312 312 313 313 312 312 312 312 311 311 309 310 312 312 310 304 296 299 301 301 304 311 306 311 310 312 314 313 311 310 311 312 311 310 309 306 305 305 303 302 298 295 296 297 298 299 302 299 297 298 297 295 294 295 295 300 297 296 298 295 295 296 300 303 307 303 303 307 309 309 309 311 314 314 314 314 314 316 317 317 316 316
310 310 311 311 312 312 312 312 312 312 313 311 310 309 308 310 311 312 313 314 310 303 302 303 307 305 298 300 311 310 310 309 308 307 308 307 309 309 309 309 307 306 304 302 299 296 294 296 298 299 300 302 299 295 296 293 292 290 292 296 300 298 301 304 303 300 300 303 306 306 302 304 306 308 309 310 311 314 313 311 313 315 316 317 318 318 316
310 311 312 312 312 312 312 312 312 312 313 311 308 303 301 308 312 312 313 314 311 309 302 300 296 300 310 311 309 309 307 307 306 306 307 306 309 309 309 309 311 314 305 301 300 300 298 297 301 304 306 310 300 297 295 290 290 291 294 296 300 301 303 305 305 303 302 302 307 306 304 306 308 309 309 310 312 314 312 311 312 314 314 317 316 315 316
311 311 312 312 312 312 312 312 312 313 312 309 304 296 291 294 304 313 313 313 313 309 306 307 301 308 305 310 310 307 308 307 305 306 306 306 308 308 310 309 310 314 303 303 300 297 300 299 302 305 305 311 303 296 292 291 290 291 297 301 304 304 304 305 303 305 304 306 307 307 307 307 309 310 310 311 311 313 313 313 317 319 316 316 315 315 314
311 312 312 312 312 312 313 313 313 312 311 307 302 301 303 305 308 311 312 312 312 308 304 301 301 299 298 302 306 311 309 308 309 311 309 313 309 313 312 310 309 314 309 300 303 302 301 299 303 303 301 307 304 292 292 290 292 294 298 301 302 303 303 303 304 306 307 309 309 308 307 307 309 311 309 310 311 312 315 314 315 319 320 313 312 312 313
311 312 312 312 312 312 312 312 313 312 309 310 312 312 312 311 311 312 312 311 307 301 305 303 298 299 298 300 306 306 308 307 305 306 306 311 310 310 308 313 310 309 317 309 300 299 303 303 303 303 303 305 300 297 295 294 294 297 298 304 302 303 304 304 306 307 308 309 311 306 304 307 309 309 310 311 311 313 315 314 312 312 312 312 311 311 312
311 312 312 312 313 313 312 312 313 312 311 308 303 305 308 311 310 311 311 308 303 303 305 299 295 293 298 306 299 303 309 302 303 302 301 309 310 306 305 308 307 305 305 302 303 303 303 307 301 301 303 302 300 297 294 295 296 296 299 303 303 304 305 306 306 306 307 309 308 308 310 310 309 308 310 311 312 313 314 312 312 311 310 311 310 310 310
311 312 312 313 312 312 312 311 309 308 304 304 304 306 306 312 311 311 311 306 298 297 299 298 300 293 291 293 295 299 309 305 302 302 300 306 312 305 306 302 301 300 303 308 301 300 300 301 302 301 298 299 299 295 295 297 298 299 302 303 304 305 305 305 305 306 306 307 306 307 308 309 309 308 309 310 312 311 310 310 311 311 309 308 307 306 309
312 313 312 312 312 312 310 310 308 305 302 302 304 313 316 315 313 310 310 309 308 303 299 296 295 291 291 287 288 297 308 302 305 306 307 306 304 309 306 302 298 299 307 301 299 299 300 306 304 296 298 297 298 295 297 299 299 301 304 305 306 307 308 308 307 306 306 305 306 307 308 309 309 308 308 310 310 310 310 309 309 310 309 306 305 304 306
312 312 312 311 310 308 305 305 309 307 304 306 310 317 315 313 311 311 307 305 307 312 304 299 294 293 293 292 295 297 303 297 302 303 304 301 300 308 303 298 297 305 300 298 299 300 300 308 298 295 297 296 297 301 302 301 302 303 303 305 308 307 305 306 308 308 306 305 306 306 307 307 306 307 308 309 309 309 309 308 308 308 307 305 304 304 306
312 311 308 306 305 302 303 306 307 310 315 315 315 310 306 308 300 303 301 297 299 310 300 297 293 295 297 295 293 299 301 298 302 299 300 305 301 300 304 301 301 303 296 297 301 305 302 301 298 296 296 299 300 302 302 303 305 307 308 308 308 308 306 309 309 308 306 304 302 303 305 305 305 305 307 307 308 308 309 310 309 310 309 308 306 306 306
310 307 306 306 304 301 303 307 312 317 313 313 311 304 300 300 296 296 298 299 306 300 299 296 295 294 295 295 297 302 301 298 295 296 297 302 299 297 301 296 301 301 290 295 300 306 299 294 295 297 296 297 300 304 304 304 304 307 308 309 309 308 309 310 310 310 308 308 308 307 308 306 306 305 306 308 308 309 309 309 309 308 309 308 306 306 306
306 303 304 304 302 304 311 311 314 312 311 302 303 299 297 298 293 289 296 294 293 297 298 293 296 294 298 297 295 294 303 298 295 295 297 300 306 297 300 299 300 297 288 291 295 304 297 292 292 294 296 297 299 302 303 305 305 306 307 308 309 309 310 310 311 312 312 311 311 310 310 311 311 309 307 307 307 307 305 307 308 308 307 307 308 306 305
305 305 306 304 306 305 306 309 308 307 302 297 296 295 293 290 294 293 295 289 287 290 299 297 297 296 299 297 295 294 298 308 301 302 299 298 306 304 297 295 303 293 288 291 299 299 295 293 293 293 296 298 300 303 304 304 306 307 307 308 309 309 310 310 311 310 310 309 308 309 309 310 310 309 309 308 308 308 307 308 308 307 306 308 309 307 305
307 306 307 308 308 309 309 308 303 299 299 299 294 287 287 292 296 294 293 288 288 292 295 299 295 294 294 298 296 296 296 305 307 305 296 295 303 299 297 297 298 293 290 297 302 296 294 291 289 291 297 299 301 302 303 305 306 306 306 308 310 310 310 310 310 309 310 310 309 309 309 309 309 308 308 307 307 307 306 307 308 307 307 308 308 305 305
310 310 309 307 307 304 305 295 298 296 289 286 282 284 285 285 290 290 290 295 297 296 297 302 301 301 302 304 300 299 296 304 302 299 296 295 302 300 296 292 293 288 294 302 298 295 292 289 287 296 299 299 301 303 304 307 308 308 308 308 310 310 311 310 310 310 309 310 310 309 309 308 308 308 308 308 307 307 308 309 309 306 306 306 305 305 306
310 309 306 305 299 299 302 291 303 298 291 283 282 281 283 287 288 291 291 290 293 295 296 297 299 296 295 300 297 297 300 301 304 300 299 301 296 294 294 289 292 295 302 297 295 291 293 294 298 300 299 299 302 302 303 305 306 306 307 308 309 310 310 310 309 309 308 308 309 309 309 309 308 308 308 308 308 306 305 306 308 307 306 305 304 304 304
304 303 297 296 295 297 291 287 294 292 288 289 287 286 288 285 285 286 288 294 299 300 303 302 300 301 302 303 301 300 299 297 303 300 295 298 293 294 294 292 296 297 295 291 292 292 293 294 299 299 300 300 302 303 304 305 306 308 308 307 308 309 309 309 309 309 308 309 308 309 308 308 308 307 307 307 307 307 307 305 306 306 304 304 303 303 305
300 293 292 291 290 290 285 284 285 288 289 291 291 290 289 290 288 291 297 301 300 301 302 303 303 302 301 304 298 297 298 298 296 296 298 296 292 291 297 300 299 294 292 290 288 288 293 297 298 300 301 302 304 304 304 306 306 307 308 308 308 309 309 310 309 309 309 308 308 309 308 308 307 307 306 306 306 306 306 306 306 304 304 304 304 304 303
301 303 291 289 287 288 293 288 288 290 290 290 293 294 295 295 296 296 299 303 301 301 304 305 304 304 299 300 300 299 299 298 295 295 296 293 293 293 298 294 288 289 289 287 288 291 294 298 300 301 301 301 302 303 304 306 307 308 309 309 309 309 309 309 309 309 308 308 308 308 307 307 306 306 305 304 303 304 306 305 304 305 305 304 304 303 303
291 296 298 289 287 289 290 293 294 293 296 298 296 296 298 300 299 298 300 302 304 303 302 302 300 301 300 305 303 299 298 298 295 294 298 294 296 292 286 291 290 292 292 290 292 295 297 299 299 299 301 302 303 303 304 306 308 308 309 309 308 308 309 309 309 308 308 308 307 307 306 306 305 305 305 304 303 303 303 304 304 304 304 303 303 303 303
302 292 290 289 292 290 292 295 295 294 294 294 297 298 300 300 299 300 302 304 303 302 302 300 301 301 297 299 298 297 296 298 292 290 295 292 290 286 288 286 289 288 294 296 296 296 299 303 304 303 301 301 303 304 305 308 309 309 309 309 308 309 309 309 309 309 309 308 307 306 305 306 305 305 304 304 302 301 302 303 303 304 304 304 304 303 303
293 293 298 293 295 297 298 297 295 291 290 293 295 296 297 297 298 300 304 306 305 304 302 302 303 297 296 299 290 291 291 294 295 292 292 290 291 291 290 287 289 291 290 294 296 298 300 301 302 304 305 305 307 307 307 308 311 311 310 310 309 309 310 310 309 309 308 307 307 306 306 305 304 304 304 303 302 302 302 302 303 303 303 304 304 303 303
299 295 295 302 297 294 295 291 289 289 292 294 295 296 297 296 298 298 303 305 304 302 299 295 295 291 289 289 287 288 289 296 295 292 291 291 294 292 290 291 292 293 293 297 299 300 301 301 303 305 306 307 306 307 308 309 310 310 309 308 309 309 309 310 309 308 307 307 307 309 305 304 304 304 303 302 302 302 302 303 303 302 302 303 303 303 303
291 291 295 300 302 300 298 297 299 299 298 300 299 301 301 298 299 302 307 306 303 299 296 299 294 289 288 288 291 295 298 295 292 293 291 294 295 293 291 294 296 295 297 298 299 300 303 304 305 307 308 309 311 307 307 309 309 308 308 309 309 309 309 308 308 307 307 306 306 305 303 303 303 302 303 302 302 302 301 300 302 302 303 302 303 303 302
Wind_Speed
18 19 19 20 22 22 22 24 23 24 25 7 6 4 3 4 1 3 3 1 3 3 2 1 1 0 3 2 2 1 1 2 2 0 1 1 1 1 2 0 1 0 0 0 2 1 2 2 1 0 1 1 2 5 9 3 3 4 0 1 1 4 5 5 2 6 6 6 3 3 1 4 3 2 3 5 3 1 4 4 4 5 0 0 1 0 1
17 18 19 19 21 21 22 23 23 22 21 6 5 2 2 1 2 3 1 1 4 2 1 1 3 3 4 0 4 2 2 0 1 0 1 0 2 0 0 2 0 1 1 1 1 0 1 1 2 1 0 1 2 5 8 2 1 2 1 2 2 1 1 3 3 4 5 7 7 2 2 5 3 2 5 3 4 1 3 2 0 3 0 1 3 2 1
16 17 18 19 20 21 22 22 22 22 20 8 1 2 1 2 2 2 7 4 4 2 3 3 1 2 3 2 5 4 1 5 3 1 0 0 1 1 0 0 1 1 1 2 1 1 1 1 3 0 0 1 3 6 7 5 3 2 1 6 3 8 0 2 5 1 1 1 2 3 6 6 5 1 9 6 6 3 1 1 1 2 0 2 4 2 2
15 16 17 18 20 21 22 22 22 22 20 9 1 1 2 3 0 4 4 6 5 3 0 3 1 0 2 3 5 1 1 1 3 5 1 0 2 2 1 1 2 3 2 3 4 4 3 4 0 1 1 2 2 2 8 5 3 6 8 3 5 3 1 1 6 5 3 4 4 7 2 4 6 9 8 12 6 3 1 4 4 5 4 4 1 1 4
14 15 17 18 19 20 22 22 22 22 20 8 1 1 2 1 2 2 3 6 6 3 4 2 2 0 2 1 1 1 2 2 0 3 1 1 1 1 2 0 1 1 2 0 2 1 2 5 2 2 1 2 2 7 3 4 8 5 4 2 6 4 5 1 7 6 2 3 4 4 3 4 2 7 10 11 13 6 4 1 2 5 10 2 2 2 4
14 16 17 17 17 19 21 22 23 23 22 6 0 2 2 1 1 1 1 0 1 2 1 3 2 2 1 3 0 2 0 0 1 2 1 0 2 2 3 4 1 2 3 3 2 3 1 3 1 4 0 2 4 4 6 5 7 3 2 1 4 5 4 3 0 5 1 2 3 2 4 5 4 6 8 13 11 13 8 4 2 3 3 8 7 6 5
14 15 17 17 16 18 20 21 23 24 23 3 1 2 3 1 1 0 2 1 2 4 2 3 1 3 2 2 1 3 0 3 3 2 0 2 1 2 1 1 0 3 3 2 1 1 2 1 1 1 2 1 2 2 3 1 6 4 2 4 1 5 1 3 1 4 4 4 5 2 5 3 7 9 9 8 11 11 10 9 3 7 10 11 11 10 8
13 14 15 16 15 17 18 20 21 24 25 3 3 3 1 3 1 2 4 0 2 2 1 0 2 2 2 1 2 0 1 3 3 1 2 0 0 1 5 1 1 2 4 4 4 3 5 3 1 1 1 2 0 0 2 1 3 4 1 0 2 4 1 4 3 3 2 2 2 3 4 7 9 7 9 9 6 8 10 8 8 10 11 10 10 10 6
13 14 14 14 13 15 16 18 20 22 20 6 5 2 2 2 0 0 1 3 3 1 0 1 1 0 3 2 3 2 2 1 0 3 2 3 4 2 8 7 4 2 4 4 4 6 7 5 2 4 3 1 2 2 2 3 1 3 2 2 1 4 1 3 2 3 0 3 2 6 3 5 8 6 8 8 6 6 6 4 4 2 6 7 7 6 3
12 13 13 14 12 13 14 15 18 18 16 4 2 2 2 1 1 0 1 1 1 1 1 1 1 0 2 1 2 0 5 4 3 2 3 3 4 7 11 7 8 1 3 4 3 6 8 7 4 6 4 1 1 0 2 5 1 1 1 0 2 2 5 3 3 4 2 1 6 6 6 6 5 3 3 0 1 2 4 5 8 6 2 1 3 4 2
12 12 12 12 11 11 12 13 14 16 10 7 5 3 4 4 3 4 1 0 3 2 1 2 1 1 0 1 2 2 4 5 1 4 2 0 0 1 8 9 7 4 4 4 5 8 8 3 2 4 7 5 4 2 1 4 2 1 3 2 1 3 5 2 1 4 3 1 4 3 2 1 2 2 2 3 3 3 5 4 5 5 2 2 2 4 5
12 11 11 11 9 9 10 10 10 12 9 5 2 2 1 1 1 0 1 0 4 2 1 3 1 2 2 4 0 2 4 6 6 3 4 2 1 2 5 3 7 2 3 1 3 5 5 3 4 3 4 6 4 4 6 4 4 3 1 3 1 1 4 3 1 4 3 2 2 3 2 5 2 1 3 6 7 5 8 6 5 4 5 7 7 6 6
12 11 10 10 9 9 8 8 8 8 8 5 4 3 2 3 1 1 1 1 3 1 3 3 1 5 6 6 5 4 6 8 7 7 4 3 1 1 3 3 4 3 4 4 6 6 3 0 1 1 1 6 3 7 9 8 5 6 4 2 6 2 3 3 2 3 3 4 1 2 4 3 3 2 2 3 3 4 4 3 2 2 3 4 5 5 6
13 12 11 9 9 9 8 7 7 6 8 5 5 4 3 1 1 1 0 1 3 2 3 6 5 3 4 4 4 7 6 5 5 2 3 1 4 4 1 3 2 4 7 7 7 4 2 5 1 1 2 6 3 1 1 3 2 4 5 6 1 8 4 4 1 0 3 2 4 1 3 2 1 1 1 2 2 1 1 1 2 4 2 2 6 6 6
12 12 10 10 8 8 8 8 5 6 6 6 4 4 3 2 2 1 2 1 2 3 2 2 1 3 3 5 2 6 4 4 6 1 3 1 1 1 2 1 2 6 2 3 2 5 2 3 1 1 2 1 1 3 2 0 2 2 1 2 4 2 1 3 4 1 4 6 3 2 1 1 6 6 4 2 3 2 4 2 1 2 4 5 7 7 7
12 11 10 9 8 7 8 9 6 5 5 5 3 4 4 2 3 1 1 1 1 3 4 7 1 1 2 4 3 2 2 3 1 2 4 2 2 1 1 2 2 3 6 7 3 4 1 2 2 3 2 2 2 1 1 2 1 1 3 3 5 7 7 7 4 2 3 4 5 3 4 5 6 6 3 2 0 5 4 2 2 3 8 8 9 9 8
12 11 10 9 8 7 7 8 8 4 5 5 4 4 3 1 1 1 1 1 2 6 2 3 1 0 2 6 3 1 0 1 1 1 1 1 0 1 0 1 2 4 2 4 3 2 2 4 2 1 1 2 2 2 0 1 0 1 2 5 7 6 4 3 5 3 1 5 3 2 3 1 2 6 3 1 1 0 2 1 3 5 7 8 9 10 10
11 11 10 8 7 7 6 7 8 6 5 4 3 4 4 1 1 1 1 1 2 4 5 4 3 2 3 2 1 4 0 2 3 1 1 3 2 1 1 1 1 3 2 2 1 4 2 2 3 2 1 2 1 2 2 2 2 1 1 0 0 2 1 5 4 3 2 5 0 2 3 3 3 2 4 1 1 3 2 3 3 2 8 7 8 9 8
11 11 9 8 6 6 6 7 8 7 6 4 3 3 2 1 2 2 1 1 2 4 5 3 1 2 2 0 2 1 1 1 0 1 4 2 1 2 2 2 1 3 6 5 3 3 3 1 1 1 3 1 0 1 1 1 2 0 1 1 1 0 2 0 2 3 2 2 3 4 3 5 2 2 0 0 3 1 4 5 1 4 6 4 5 6 5
11 11 9 6 6 5 6 6 7 6 6 3 3 3 5 3 1 2 0 2 1 5 6 5 2 7 1 1 3 3 4 4 0 1 1 1 3 5 1 1 3 3 2 2 2 1 2 3 2 1 0 2 2 3 1 1 0 2 1 1 2 4 3 2 2 2 2 3 3 1 1 1 2 3 3 1 2 5 4 2 2 2 7 7 5 5 5
11 10 6 5 5 5 5 6 6 6 6 3 4 3 3 1 2 2 2 0 2 4 8 2 1 7 3 5 7 7 5 6 3 1 3 3 2 2 3 5 6 2 4 4 5 3 3 1 2 1 1 3 0 1 3 1 0 2 0 3 2 2 3 0 2 4 3 2 2 2 3 2 1 4 4 4 4 1 3 3 4 2 5 5 6 2 5
10 6 4 4 4 5 5 5 5 5 4 3 2 1 3 1 1 1 0 1 3 6 5 4 2 8 11 11 10 8 10 11 11 5 4 5 2 4 2 1 5 2 2 4 4 2 1 1 1 1 2 1 2 1 2 2 2 2 1 1 1 4 1 6 3 3 2 3 3 2 4 4 3 4 3 2 1 1 4 5 4 5 2 2 6 6 5
7 3 4 4 5 6 6 5 4 5 4 3 1 1 3 4 3 0 0 3 4 5 5 7 6 8 9 11 12 13 13 11 9 5 6 4 5 2 5 3 4 2 1 1 5 6 5 6 2 4 2 2 6 2 1 1 1 1 2 3 1 1 1 2 6 0 2 1 4 2 1 0 0 1 2 2 2 2 2 6 5 2 3 4 8 7 8
3 4 4 5 5 6 5 4 4 4 4 3 1 3 4 3 4 2 2 3 1 5 6 3 1 5 5 5 1 3 6 6 10 12 7 7 4 5 3 4 1 1 0 2 4 6 5 3 2 1 1 2 4 2 5 2 3 3 2 0 2 1 1 1 3 0 4 1 2 1 0 2 1 1 2 1 2 2 2 5 4 4 6 7 8 10 9
4 4 5 5 6 6 5 4 3 4 3 4 5 4 4 4 3 3 1 1 1 0 4 6 5 10 6 4 6 5 7 7 4 7 8 11 12 6 4 1 3 2 5 4 1 7 3 4 0 1 2 3 4 3 1 3 2 2 2 2 1 2 2 6 1 3 2 2 2 2 3 3 3 2 1 3 3 4 3 3 4 5 5 8 8 9 8
4 4 5 6 6 5 4 3 4 4 4 5 6 3 4 4 1 2 2 3 2 1 2 5 6 3 2 5 5 4 2 2 5 7 11 14 16 15 10 3 2 2 4 2 3 5 4 4 3 2 4 2 1 1 4 5 1 1 2 5 6 2 3 1 3 3 1 1 2 1 1 1 1 1 1 1 5 6 4 4 6 7 8 7 5 5 8
3 3 5 5 5 5 4 4 5 6 6 5 4 4 4 5 4 5 3 3 2 3 3 6 6 7 4 10 12 7 7 5 5 8 9 12 13 11 7 4 4 1 3 3 3 5 3 2 3 2 2 1 5 1 4 1 2 2 2 1 1 3 3 2 4 5 2 6 6 5 4 2 3 4 5 4 3 6 6 5 6 6 7 6 7 5 3
3 4 4 4 4 4 4 5 6 6 6 6 5 5 5 6 5 7 7 7 4 2 2 4 5 9 10 10 5 4 8 6 6 6 7 9 11 10 9 8 6 4 2 5 1 1 2 3 2 0 2 1 3 0 0 1 3 3 0 5 5 4 6 7 6 8 5 8 6 9 4 2 5 8 5 3 3 6 8 6 6 4 5 6 8 7 5
3 4 4 4 4 5 5 6 7 7 7 4 4 7 7 7 6 7 7 6 4 2 4 6 7 4 3 6 7 8 6 4 5 5 6 5 9 9 10 9 7 5 4 5 4 3 2 1 2 4 1 4 4 0 1 2 2 3 4 5 5 4 9 13 12 6 3 5 10 9 4 6 5 5 5 6 4 5 7 4 4 7 7 6 6 6 7
4 4 4 4 4 5 6 6 7 7 6 3 3 2 2 0 1 3 5 5 5 2 2 3 5 5 4 4 6 3 3 2 2 3 4 4 6 8 8 6 2 1 3 3 5 2 2 2 1 1 2 1 1 2 2 2 1 5 3 2 5 1 5 4 5 7 3 3 7 6 2 1 2 5 4 3 3 4 9 7 8 7 4 6 8 5 5
5 4 4 4 5 6 8 8 7 6 4 2 1 2 2 1 1 1 4 2 4 3 3 3 6 6 7 4 3 7 7 4 3 2 2 3 3 4 2 3 2 2 3 1 1 1 2 2 1 0 1 0 3 3 4 4 2 2 4 5 7 6 7 9 4 1 3 6 7 5 3 4 4 6 2 2 3 3 5 3 3 6 8 6 7 7 6
5 5 4 5 5 6 7 7 6 4 3 3 4 2 1 2 1 2 4 4 0 3 2 3 4 2 2 4 3 2 2 3 0 1 3 1 2 2 3 3 2 2 3 3 1 2 1 1 2 2 2 1 5 3 3 3 3 3 2 5 5 4 3 5 4 3 4 9 12 10 5 1 4 11 8 7 5 3 8 8 5 6 8 7 5 5 5
5 4 4 6 7 7 7 7 6 4 3 5 8 13 16 15 12 10 3 3 1 1 1 1 3 2 2 4 6 4 1 1 2 3 2 3 2 2 2 3 2 3 4 4 0 1 2 3 2 3 1 1 2 2 3 4 5 3 4 2 1 2 4 2 3 5 9 8 13 11 7 9 10 5 1 7 6 8 10 10 8 8 9 9 9 8 7
5 5 6 7 8 7 6 6 6 6 6 4 5 5 5 12 13 16 4 2 1 2 1 1 2 2 5 5 2 2 3 1 1 2 3 2 0 4 1 1 3 3 2 2 2 2 1 1 2 1 0 0 1 2 1 4 5 2 1 1 1 3 3 4 5 7 8 7 1 0 6 7 6 6 8 7 6 3 6 9 9 9 8 9 7 7 7
6 6 8 7 6 6 8 8 4 3 3 3 5 5 2 6 8 8 11 4 1 1 0 2 1 2 4 5 2 4 2 1 1 2 3 1 2 2 1 3 1 3 2 2 2 0 2 3 5 3 3 0 1 2 3 4 4 2 1 4 2 5 4 3 3 4 3 1 2 6 10 12 12 8 8 6 8 8 10 8 9 12 8 7 7 6 6
7 7 7 6 6 5 2 2 3 3 2 3 3 6 1 5 7 5 8 2 1 2 1 2 0 2 1 1 3 3 3 1 2 1 0 1 2 3 2 2 3 1 1 1 2 1 2 1 2 2 1 2 5 4 5 6 6 6 7 7 8 10 9 12 9 7 3 3 6 6 9 8 13 11 8 8 8 7 9 9 4 8 11 8 6 5 4
4 5 7 6 3 2 2 2 2 3 4 4 2 9 14 10 5 5 2 2 2 1 2 1 1 4 4 2 2 4 3 3 3 3 6 4 2 2 3 3 2 1 1 2 1 0 1 1 2 1 3 4 4 6 7 8 8 7 5 7 9 6 1 2 8 12 8 6 6 5 7 8 7 8 9 9 8 7 8 10 9 9 9 9 7 7 8
5 5 1 1 1 0 1 2 3 4 7 5 4 1 1 1 1 1 2 1 3 2 2 1 4 3 1 1 4 3 2 1 1 1 1 1 2 3 2 3 0 1 1 1 1 2 1 1 1 2 4 5 4 4 6 6 7 6 8 7 8 7 5 7 11 12 10 6 3 3 3 4 7 6 10 9 8 9 10 10 9 7 8 9 9 8 6
1 1 1 1 1 2 2 1 2 9 1 1 1 0 0 0 2 0 2 2 1 1 2 3 5 3 3 2 6 4 1 1 4 2 2 2 2 1 2 1 2 1 1 1 3 3 1 2 1 0 4 3 2 6 5 7 4 5 5 6 8 9 8 10 12 15 14 12 13 14 15 13 12 10 7 9 8 6 5 6 7 6 7 7 7 6 7
2 2 2 2 3 3 2 3 6 3 1 0 0 1 0 0 1 2 0 1 1 2 1 3 4 4 6 7 3 4 1 0 1 2 1 1 1 3 1 2 1 2 0 0 3 2 1 2 1 1 6 3 6 5 4 6 7 8 6 5 6 8 10 12 10 10 13 10 10 12 11 13 13 13 11 9 10 8 4 4 4 5 6 7 7 8 9
2 2 2 2 2 2 3 5 4 1 1 1 1 1 1 1 1 1 1 0 1 2 2 3 0 1 1 0 2 4 5 1 1 2 3 2 1 2 2 1 0 3 1 1 5 1 0 0 1 4 7 4 6 6 5 4 6 6 5 5 8 9 10 10 10 6 5 5 4 6 6 6 8 10 11 12 11 10 9 9 8 7 6 7 8 8 4
1 2 2 3 4 4 4 1 1 1 1 0 1 1 0 2 0 1 1 2 3 1 2 2 1 2 2 6 5 3 2 1 2 1 2 1 2 3 1 1 1 1 2 6 3 1 1 2 3 4 5 7 8 5 4 6 6 4 5 6 8 9 9 9 8 4 6 9 9 9 7 8 8 8 8 10 9 8 8 7 6 6 8 6 4 5 6
4 4 3 3 2 2 1 0 1 2 1 0 2 2 2 0 2 2 1 2 1 1 2 0 1 1 1 1 1 1 2 0 1 0 1 2 0 2 2 0 0 1 3 1 2 1 2 3 3 7 5 6 6 6 7 9 7 6 7 9 10 10 11 11 11 10 7 8 10 10 9 9 9 9 8 8 8 6 3 5 9 9 6 7 7 6 6
3 2 2 2 1 1 1 1 0 1 1 1 3 2 1 1 3 0 0 2 1 1 1 1 1 1 2 1 0 0 1 0 1 2 2 0 2 1 1 2 4 3 1 1 1 3 5 4 6 5 6 5 5 5 7 6 5 3 3 5 5 6 7 6 4 6 4 3 4 5 7 7 7 6 6 7 10 10 6 5 4 6 7 7 7 6 5
0 1 1 1 0 1 2 2 2 1 3 3 3 2 4 3 3 3 2 2 1 1 1 0 1 0 0 1 0 0 1 1 1 1 1 1 2 1 1 2 2 0 1 2 1 2 1 4 4 4 5 5 7 7 6 5 5 8 6 4 6 7 7 8 8 8 8 9 10 9 8 8 8 8 7 7 5 9 11 9 8 8 7 8 7 7 5
1 1 1 2 1 1 1 1 0 1 3 2 3 6 5 6 3 2 4 1 0 0 1 0 1 2 2 1 1 1 2 1 1 0 1 1 3 2 2 1 1 0 1 0 2 4 5 5 5 6 6 8 8 6 4 4 3 3 5 7 9 10 11 11 10 10 10 9 8 9 9 8 9 10 7 5 6 5 6 9 8 10 9 9 8 8 6
0 0 1 1 1 2 1 2 4 5 3 3 4 5 5 5 6 4 2 1 1 2 1 0 0 0 1 0 1 1 1 1 0 1 1 1 1 0 2 2 1 1 2 3 3 3 4 6 6 6 6 6 7 6 4 3 5 7 9 7 9 11 11 11 10 10 8 9 9 9 9 8 7 8 9 7 4 4 6 7 7 8 10 10 8 7 7
1 1 1 1 3 1 3 4 1 2 2 2 2 3 4 1 0 2 2 1 1 2 3 1 0 1 2 1 1 0 0 0 1 1 1 0 1 1 0 1 2 2 3 3 4 5 5 6 6 6 6 6 5 5 4 5 6 8 7 7 9 10 11 11 10 9 10 11 11 10 9 9 10 10 10 10 8 5 6 7 8 8 9 9 8 7 8
1 1 1 2 2 2 3 3 0 1 3 3 2 1 0 0 3 5 3 1 1 2 2 2 1 1 1 1 1 0 0 1 1 2 1 1 1 3 2 2 3 3 4 4 5 5 6 7 5 4 4 4 5 6 6 7 8 9 10 10 11 12 12 12 12 12 11 10 10 10 9 9 9 10 9 10 11 7 5 7 8 8 8 10 9 8 7
1 0 0 0 2 3 4 1 0 2 3 2 2 1 2 1 2 5 2 2 1 2 1 2 2 2 1 1 0 1 1 1 1 0 1 3 3 1 1 3 3 4 1 3 4 6 7 6 2 4 5 4 4 5 5 6 6 8 8 7 6 8 10 11 10 11 11 10 11 11 12 11 10 11 13 12 10 9 7 7 8 9 7 8 9 8 8
0 0 2 2 4 2 1 0 1 1 2 2 2 2 1 2 2 2 0 2 2 2 1 2 1 2 1 2 1 0 2 1 1 3 3 4 2 2 3 5 4 5 5 5 6 6 6 3 3 5 5 5 5 5 5 6 6 6 4 5 6 7 7 9 11 11 9 9 11 12 12 10 9 10 9 11 11 10 9 6 6 7 8 7 7 8 8
0 0 2 2 3 4 4 3 2 5 6 6 3 4 2 2 2 4 0 4 4 3 2 0 1 1 1 2 3 1 1 1 1 0 1 4 2 2 3 4 5 6 6 6 6 5 4 5 4 4 5 6 5 3 4 3 4 4 6 7 8 9 9 9 10 10 11 10 10 10 9 10 11 11 11 12 11 11 10 8 5 6 7 7 6 6 7
Wind_Direction
342 341 342 342 342 345 347 348 349 351 351 8 354 323 8 56 202 252 332 338 115 66 57 304 41 201 236 306 299 214 305 231 252 25 331 327 144 4 49 186 75 182 258 325 59 96 71 10 14 244 287 302 259 304 325 284 74 83 330 31 305 88 41 14 307 308 291 300 269 308 321 101 43 360 36 27 320 215 174 177 180 135 314 38 9 85 245
342 341 342 343 342 345 347 348 350 353 5 341 304 44 88 193 251 322 291 66 123 78 222 327 312 284 309 31 258 230 227 164 317 219 264 125 343 107 139 343 156 111 114 89 78 322 88 352 61 16 76 57 304 334 335 308 62 91 243 128 241 55 340 110 35 359 338 337 349 3 338 66 73 334 335 309 298 239 202 109 67 93 310 160 124 222 266
342 342 342 344 344 344 347 347 348 353 357 5 314 21 278 280 261 255 297 355 100 162 182 133 198 293 284 325 305 318 316 202 206 164 286 118 165 106 4 230 217 45 49 84 79 355 132 115 337 94 245 244 332 314 8 346 84 41 133 110 115 86 250 95 92 102 133 286 309 325 327 316 304 25 340 352 356 0 63 188 25 134 289 86 92 145 237
341 343 343 345 346 345 345 347 348 351 356 350 93 238 26 18 21 302 338 6 21 67 91 90 133 12 337 348 270 169 279 346 324 112 335 194 87 92 148 345 78 50 35 29 17 7 21 91 255 50 317 314 322 285 333 31 58 89 105 100 71 107 14 65 137 150 177 224 239 269 233 355 40 313 356 351 351 10 115 100 107 183 176 88 316 134 105
339 343 344 345 348 346 345 346 347 349 352 5 60 300 108 209 67 359 330 343 36 65 33 55 53 18 141 228 267 268 194 246 314 173 111 298 148 61 59 277 72 304 66 61 80 9 8 356 76 357 285 267 261 302 323 348 28 95 91 45 82 87 74 307 119 117 189 223 218 282 81 98 18 19 360 0 11 359 51 101 192 166 111 21 264 165 107
337 342 344 346 348 348 346 346 347 347 350 348 225 19 7 43 270 101 201 147 249 44 292 61 307 290 150 243 336 276 25 358 134 346 69 85 358 118 351 27 45 177 173 139 83 349 67 30 24 324 229 326 333 28 5 44 313 8 60 37 108 135 113 254 42 93 108 70 28 2 79 75 75 48 22 26 9 28 52 4 333 61 141 165 168 131 104
334 340 343 347 349 348 349 348 348 347 345 30 69 58 309 111 292 196 328 213 253 173 262 333 270 332 194 244 339 331 61 239 212 158 313 23 359 93 148 274 275 169 163 109 137 168 76 328 286 179 315 12 342 32 343 332 12 55 45 26 119 86 14 205 162 96 49 27 51 340 91 91 56 39 36 27 33 39 50 61 54 94 94 106 112 99 90
331 336 341 346 350 349 351 351 352 349 343 353 64 69 16 353 27 313 352 51 261 271 348 102 41 28 323 41 309 233 244 261 336 344 128 91 336 22 98 202 41 142 131 108 106 206 160 159 115 230 136 339 133 143 190 262 328 45 95 82 343 99 259 164 23 73 43 334 115 106 65 73 62 31 38 31 40 38 23 39 45 81 93 101 109 103 98
327 332 338 345 350 351 352 355 357 354 348 43 43 66 44 292 322 266 17 355 279 316 22 67 81 49 333 52 288 342 280 270 122 275 188 163 172 189 160 173 120 42 79 85 145 191 166 162 146 179 150 113 226 129 273 166 19 353 21 33 327 71 204 37 76 91 322 302 1 4 7 76 79 40 20 18 19 54 15 25 339 320 128 125 104 93 118
321 327 334 342 349 350 352 359 360 0 351 75 17 33 304 332 281 359 140 258 313 348 308 29 67 310 227 171 266 321 274 274 332 299 272 206 190 172 156 182 115 45 94 144 195 204 183 188 204 180 193 181 233 238 220 169 163 195 113 228 80 109 135 130 94 105 263 283 35 345 348 27 13 343 317 269 93 116 117 51 38 34 10 78 113 138 116
314 320 328 336 346 349 352 360 4 5 10 37 7 335 356 31 341 348 26 293 317 43 24 318 90 223 339 270 291 262 266 302 337 180 260 359 309 191 143 145 121 170 170 205 215 171 182 183 144 84 75 61 64 49 56 51 60 146 154 63 93 94 100 133 130 140 227 343 359 7 50 291 242 238 265 202 154 198 96 61 43 42 59 114 63 108 127
309 312 318 328 340 347 349 357 3 12 22 22 16 287 247 310 8 137 67 114 263 317 60 244 202 299 345 294 323 276 297 300 286 187 256 241 208 97 86 86 106 107 238 166 77 92 109 76 46 30 56 29 35 64 73 55 9 40 94 136 130 81 90 127 144 102 152 66 37 42 230 232 257 318 52 89 93 89 79 79 66 56 86 84 81 91 85
305 304 310 320 332 344 345 348 357 7 17 351 350 332 346 337 275 270 125 119 249 331 355 298 295 279 262 286 302 259 254 272 271 246 215 180 135 203 203 160 145 207 134 100 83 67 83 213 13 116 314 353 358 23 33 2 354 350 38 67 117 162 113 166 49 96 75 73 96 137 242 251 305 342 61 104 98 99 95 78 84 9 55 95 108 110 97
305 300 304 312 323 334 336 336 347 2 6 8 333 335 328 315 325 331 114 105 278 237 227 298 310 322 330 297 274 289 322 336 308 237 222 228 152 183 247 176 191 151 130 109 63 79 63 40 51 19 298 8 9 331 308 309 18 21 334 344 74 133 105 98 89 332 151 164 138 208 311 335 16 358 265 192 225 167 185 241 254 197 148 189 130 125 126
305 298 299 305 315 323 328 326 340 353 358 10 315 322 318 276 231 264 297 100 235 286 174 230 256 275 288 290 330 343 343 310 10 346 282 313 149 216 184 320 39 103 102 78 27 34 142 107 45 81 333 67 184 239 330 144 307 34 37 42 55 78 145 219 121 253 117 125 64 19 12 253 260 234 272 274 244 186 153 111 289 270 191 146 146 152 150
306 299 293 298 306 314 320 325 340 344 356 2 322 331 293 259 168 244 273 185 118 324 276 210 161 270 302 287 300 284 279 322 304 296 337 325 279 349 20 66 61 98 53 71 92 95 82 131 189 108 207 195 227 82 257 345 356 313 26 44 74 43 80 107 121 139 71 71 125 187 166 242 207 229 240 280 91 123 139 77 303 244 178 161 159 164 168
303 299 290 291 298 307 319 325 330 341 341 23 352 335 315 65 118 178 251 315 175 232 238 190 202 138 7 317 2 14 341 313 307 25 345 310 281 296 310 24 22 63 88 79 16 76 45 48 87 143 274 191 121 214 133 52 97 332 336 12 49 50 359 38 47 64 95 129 96 194 202 171 224 223 257 238 72 92 59 57 275 218 177 157 158 170 175
302 299 289 287 292 305 318 317 320 327 331 23 3 322 293 233 185 160 202 197 166 279 256 209 151 206 206 196 236 262 354 17 15 2 227 255 330 326 297 9 53 12 96 93 82 70 79 125 147 166 186 243 184 91 207 184 143 209 195 245 39 17 6 45 150 143 132 115 219 328 302 271 263 249 253 322 149 71 76 178 245 182 152 158 159 173 179
302 299 289 284 293 302 307 309 320 327 337 16 345 311 248 208 150 153 134 277 201 246 261 287 239 205 236 205 211 225 245 265 176 276 302 7 48 262 261 272 132 190 6 144 73 112 134 214 67 118 136 270 120 213 189 81 222 60 79 59 49 56 99 15 78 71 123 179 123 209 240 240 209 273 176 15 78 84 198 237 201 131 115 142 150 155 154
299 296 288 287 294 295 296 309 317 326 332 17 56 321 288 288 226 168 133 255 255 256 285 270 225 238 218 251 294 318 319 349 167 159 146 240 295 342 57 172 319 80 29 68 86 217 122 202 211 152 47 186 235 166 86 256 175 167 155 186 135 201 114 190 141 164 75 38 75 14 165 255 155 114 50 25 138 226 213 140 28 88 108 110 85 116 143
299 296 284 284 286 283 289 301 311 322 329 3 70 331 305 185 111 135 90 144 254 302 295 301 249 259 243 242 228 229 208 217 205 263 233 210 238 82 164 192 203 141 175 146 156 224 163 159 226 173 201 130 197 58 203 204 332 253 141 187 172 199 90 237 267 188 138 122 136 189 215 220 231 144 184 224 199 199 181 140 81 51 106 110 110 102 158
296 289 284 283 278 272 276 292 309 326 331 340 54 333 272 267 282 202 108 164 235 228 239 268 292 278 259 251 248 233 230 236 237 217 243 287 273 195 232 210 267 166 179 127 64 41 334 160 81 104 165 136 20 149 142 93 215 266 321 95 319 218 154 177 162 222 123 190 213 246 233 212 240 184 231 235 278 204 201 122 128 125 70 116 106 116 122
285 262 262 265 271 271 277 283 310 339 342 335 66 248 290 303 279 147 10 278 253 257 271 284 274 271 272 253 233 228 234 231 241 222 193 191 291 275 216 218 257 210 107 109 161 162 177 135 191 156 101 174 159 135 25 121 223 250 149 229 168 287 163 156 86 204 235 243 201 258 288 14 32 161 217 195 122 63 95 109 103 62 147 147 128 132 123
252 250 259 270 271 274 277 282 314 356 351 326 259 286 274 273 296 324 264 206 251 305 289 235 125 267 227 266 301 208 218 234 218 224 202 176 198 285 303 229 203 48 321 214 175 136 181 116 172 135 146 228 102 99 149 270 242 202 108 30 319 256 149 68 104 201 75 154 316 60 118 315 343 74 55 55 92 82 122 96 99 127 117 108 122 129 132
245 261 277 278 276 272 271 277 320 351 330 315 320 292 272 259 230 209 300 291 254 187 273 310 232 242 266 264 284 266 228 216 189 201 190 198 208 210 216 196 176 178 211 189 130 75 58 112 110 129 156 243 137 221 243 124 276 154 133 249 66 254 160 73 99 102 111 214 235 267 277 251 253 266 139 104 74 62 54 99 121 118 114 123 127 119 116
257 277 285 287 284 278 268 283 327 329 320 319 317 292 293 282 200 173 256 290 266 227 276 286 283 304 289 308 276 239 250 218 211 198 196 202 209 218 244 334 347 32 102 86 80 101 124 67 94 130 130 219 131 144 197 202 176 115 139 215 193 170 113 162 160 102 299 293 277 283 23 9 331 323 303 208 151 117 97 100 110 112 110 112 112 127 146
276 290 287 287 293 293 292 310 316 310 310 303 293 283 277 275 244 241 221 222 200 269 216 257 281 293 353 310 284 283 260 237 214 205 215 213 214 222 230 257 265 353 70 46 34 119 71 103 115 189 163 206 146 172 146 104 154 151 196 258 152 110 126 154 85 82 166 180 197 153 119 240 256 255 207 191 196 123 118 106 99 112 117 125 117 85 91
285 291 303 313 315 323 317 307 300 302 299 296 292 276 262 253 229 214 213 228 215 231 264 282 293 295 311 273 261 232 259 239 227 224 215 217 209 202 204 214 213 138 123 110 102 54 73 118 199 212 115 129 109 149 47 124 78 45 351 234 196 153 187 152 152 158 218 234 211 185 147 159 192 184 198 199 180 134 127 138 139 135 134 138 125 118 103
269 274 281 283 284 290 298 295 299 304 304 299 287 277 259 231 237 213 217 205 209 266 292 274 274 292 283 297 306 293 266 221 231 221 226 210 198 188 190 195 189 139 89 72 102 105 123 198 150 138 172 200 104 226 87 188 177 207 234 210 176 232 170 171 185 164 248 205 180 180 152 166 189 199 173 179 194 150 128 131 136 144 149 145 136 146 139
255 260 264 265 260 268 278 285 289 292 294 314 300 330 357 110 134 209 179 190 183 252 260 326 317 269 308 303 284 274 299 290 242 240 231 190 170 178 175 152 103 116 113 148 153 159 219 142 248 272 296 330 165 169 151 174 153 242 261 252 228 304 217 217 161 151 207 213 166 161 134 76 97 137 144 167 179 161 139 152 144 135 143 143 135 136 144
265 281 274 267 266 276 275 279 281 284 291 271 339 15 55 338 6 52 129 185 165 226 269 248 251 306 310 249 260 285 278 297 299 311 184 165 146 125 100 73 62 99 84 37 61 190 139 119 111 78 358 101 122 138 176 142 218 303 260 205 202 203 195 210 186 122 124 103 102 95 82 104 127 82 64 184 177 158 114 119 138 140 144 137 138 142 141
268 277 276 282 288 287 291 292 289 278 232 247 221 211 132 85 26 117 89 35 332 226 260 302 306 297 277 297 273 271 288 279 203 45 9 12 102 50 27 52 134 32 122 134 159 111 224 195 120 169 150 166 83 98 92 109 156 235 246 220 223 212 204 159 157 114 113 133 110 82 90 155 211 159 185 191 178 182 136 134 135 117 112 105 91 84 100
273 276 279 285 280 285 294 293 284 272 246 267 270 277 275 264 250 252 274 343 13 216 277 311 257 279 279 270 312 298 284 344 14 30 62 331 141 75 57 359 40 55 22 91 358 163 193 127 119 111 255 24 127 136 124 172 209 233 212 215 209 198 182 192 138 150 158 169 153 154 179 189 206 237 116 139 139 144 133 124 127 119 112 107 102 98 89
286 289 288 290 294 296 298 296 295 286 282 271 280 248 239 232 232 234 186 75 305 255 241 195 307 325 276 320 353 282 0 98 278 40 81 346 201 68 146 29 17 88 347 109 235 93 316 90 131 171 51 356 41 111 197 251 237 253 267 176 147 99 98 118 146 164 187 191 314 85 171 156 107 101 104 112 115 105 120 123 127 114 115 119 122 128 132
281 283 288 296 306 315 303 296 287 247 259 269 258 254 245 209 189 185 172 142 123 349 12 283 179 326 330 343 7 280 319 45 25 9 115 236 17 128 176 84 336 109 245 67 48 80 145 222 169 125 224 19 90 223 239 225 241 240 146 124 144 112 81 88 234 206 172 79 70 111 121 130 127 133 142 142 139 144 137 139 137 126 124 135 139 144 142
283 293 302 310 304 298 298 254 223 229 239 249 242 335 313 130 126 128 158 168 300 297 156 256 51 226 163 288 302 281 345 46 315 318 304 207 19 16 83 106 94 252 217 82 199 308 159 221 95 246 342 143 220 183 222 194 192 199 189 182 184 169 180 186 170 146 110 81 115 121 127 137 144 155 149 151 149 156 144 133 140 136 140 147 154 150 134
287 297 305 301 294 178 232 228 177 195 217 187 196 102 97 96 84 88 63 315 254 196 260 270 345 252 175 241 278 277 20 348 352 30 351 43 88 330 36 41 111 279 33 1 7 148 267 341 95 144 184 196 246 226 208 187 179 175 207 204 194 206 139 83 130 124 105 88 101 129 144 143 138 142 147 155 161 153 140 146 155 148 155 163 163 163 169
296 308 312 300 199 290 189 223 201 233 246 241 224 55 280 349 57 19 37 78 267 195 275 95 237 250 298 78 267 260 14 284 38 92 353 276 57 354 12 87 208 329 325 285 246 184 81 47 175 174 258 245 251 259 235 210 213 197 191 188 185 185 167 140 137 125 118 95 81 107 102 131 152 173 158 168 159 165 176 170 172 171 159 161 169 160 141
325 289 222 236 225 221 198 195 308 314 287 177 154 82 314 68 80 6 239 228 19 254 264 160 245 196 159 201 274 301 138 350 344 12 106 283 100 343 26 66 299 50 339 6 289 42 284 323 307 37 259 280 263 241 216 209 226 227 215 201 177 168 159 165 162 154 160 176 186 180 167 171 174 191 191 167 180 179 166 161 159 161 162 160 154 159 155
220 234 219 187 220 238 301 337 340 320 134 65 334 100 124 323 104 257 232 78 299 271 119 251 218 186 192 207 224 298 311 72 360 328 126 359 4 140 231 87 274 82 12 42 251 21 153 229 269 139 260 251 241 256 225 197 206 224 205 199 170 170 171 171 187 184 180 187 172 175 178 175 172 167 173 175 167 164 154 170 174 158 155 164 162 156 172
221 246 239 257 310 311 305 313 328 87 75 50 19 360 65 321 233 188 114 162 211 242 198 182 308 323 291 121 140 216 287 99 173 147 109 101 270 80 69 125 219 80 342 263 287 70 86 357 270 198 237 229 225 236 216 207 221 225 201 188 176 174 181 189 189 178 133 106 126 161 171 167 168 170 170 169 170 173 173 170 173 178 160 149 171 185 162
34 327 319 301 269 285 293 299 105 61 12 50 130 262 207 236 320 351 145 163 243 230 287 168 274 216 249 184 201 174 277 198 120 118 97 36 310 87 52 343 338 130 213 213 159 59 102 221 240 262 246 242 244 253 216 220 230 207 202 187 183 179 182 185 178 184 170 157 162 163 163 158 158 161 162 159 165 165 161 161 163 170 178 178 147 129 143
271 247 243 276 303 266 216 53 293 103 127 314 42 338 354 55 220 181 257 251 293 128 264 345 240 181 260 105 303 211 196 207 152 329 77 143 349 53 97 91 63 258 238 111 102 118 196 227 235 243 248 251 240 227 219 216 216 206 200 185 184 185 180 179 181 179 179 163 159 159 161 160 166 166 160 148 131 129 133 163 171 165 159 152 153 152 145
250 221 219 210 57 297 102 139 228 82 331 76 113 197 247 316 299 184 273 272 253 291 246 143 245 114 237 298 157 310 357 348 66 85 51 80 104 165 193 195 219 244 30 61 116 190 224 227 222 231 240 260 270 248 240 238 221 192 192 208 196 178 184 179 142 117 122 116 127 137 141 140 130 129 144 149 147 142 137 125 131 136 135 128 130 138 140
280 157 9 12 325 275 67 276 330 138 204 223 168 187 168 186 240 176 176 246 122 264 318 102 124 106 79 317 58 289 109 220 306 112 225 110 42 326 134 240 236 40 158 220 246 294 327 267 265 258 256 250 249 241 229 219 194 192 186 159 172 173 166 167 175 167 159 158 156 147 144 144 140 146 153 155 151 146 143 148 149 133 132 127 125 123 138
118 168 116 100 236 292 114 214 23 238 272 158 200 194 184 230 171 222 251 170 174 291 277 261 88 96 67 302 131 247 341 39 56 226 140 93 117 235 235 307 63 86 324 17 236 224 220 241 244 238 228 228 236 245 231 217 200 159 133 171 187 179 182 178 177 173 169 154 153 154 152 151 147 144 146 146 144 146 137 139 144 138 133 127 133 132 131
5 8 103 128 124 269 98 180 219 207 185 201 217 190 199 207 205 210 239 163 236 218 161 192 81 177 155 292 15 4 21 43 126 272 67 93 188 258 3 89 277 240 201 236 235 245 257 252 245 239 238 245 251 253 237 206 185 184 198 187 174 181 180 177 174 170 166 151 146 146 148 149 139 130 123 112 101 116 127 128 130 136 133 130 129 121 116
191 241 134 160 225 179 175 241 221 280 251 219 234 199 229 196 195 289 274 221 207 131 144 135 63 357 28 316 67 213 313 7 63 298 149 185 18 77 33 242 212 225 199 178 225 215 230 244 240 240 238 231 236 241 227 207 206 204 199 184 178 176 176 173 171 163 153 155 154 149 143 141 139 140 139 134 124 120 129 127 124 115 110 112 113 114 116
206 120 152 215 206 184 238 263 20 269 280 296 298 320 355 175 249 253 259 153 153 211 197 124 182 110 62 332 57 29 284 241 144 243 55 45 139 211 172 222 191 232 242 191 219 220 230 246 248 253 264 257 233 222 226 215 204 200 197 187 182 179 174 174 171 163 158 150 146 142 142 142 135 126 123 126 126 127 127 124 120 118 123 125 125 123 120
87 325 235 149 310 254 229 207 92 288 309 335 30 338 342 347 283 273 202 137 153 102 45 28 27 96 178 136 302 329 267 246 183 44 88 210 214 209 124 246 221 198 247 239 223 242 247 253 286 295 264 257 253 231 231 231 215 211 206 191 168 161 166 161 152 154 154 151 147 143 139 136 138 140 144 144 136 128 123 120 121 122 122 125 127 129 131
323 153 237 218 205 237 69 215 193 241 324 298 321 299 257 267 232 266 269 115 118 80 57 175 204 105 79 42 71 198 250 163 104 194 179 207 191 160 200 225 232 209 232 232 225 242 258 272 241 267 285 275 261 246 223 211 207 208 185 157 151 146 143 147 147 143 137 136 136 135 140 143 139 127 117 118 121 120 109 105 117 127 128 129 129 133 139
111 181 252 242 238 257 247 247 262 241 241 252 261 263 217 254 251 248 246 103 127 148 221 68 80 59 81 188 213 201 38 35 243 351 264 260 182 186 225 201 229 229 225 253 270 264 260 257 237 246 261 275 276 246 208 193 176 161 154 150 143 140 138 138 139 137 132 131 135 128 118 118 120 121 126 122 121 123 130 138 143 135 132 135 140 140 139